• In Norway
  • List of Countries
  • For 7 days
  • Water Temperature
  • Satellite Maps
  • Weather Map
  • Weather Widgets
  • user-avatar
    Login

    Hourly Weather Seleznevka

    Today, 25 September, Tuesday

    Time Temperature Precipitation Wind Pressure Humidity
    00:00 +9°C° 0 mm 7 mps 732 mmHg 85%
    01:00 +8°C° 0 mm 7 mps 732 mmHg 85%
    02:00 +6°C° 0 mm 7 mps 733 mmHg 85%
    03:00 +6°C° 0 mm 7 mps 733 mmHg 85%
    04:00 +7°C° 0 mm 6 mps 733 mmHg 85%
    05:00 +7°C° 0 mm 6 mps 733 mmHg 85%
    06:00 +7°C° 0 mm 6 mps 734 mmHg 84%
    07:00 +7°C° 0 mm 6 mps 734 mmHg 83%
    08:00 +6°C° 0 mm 7 mps 735 mmHg 82%
    09:00 +8°C° 0.1 mm 7 mps 735 mmHg 78%
    10:00 +8°C° 0.1 mm 7 mps 736 mmHg 75%
    11:00 +9°C° 0.1 mm 7 mps 736 mmHg 72%
    12:00 +9°C° 0.1 mm 7 mps 737 mmHg 72%
    13:00 +8°C° 0.1 mm 7 mps 738 mmHg 71%
    14:00 +8°C° 0.1 mm 7 mps 738 mmHg 71%
    15:00 +8°C° 0 mm 6 mps 739 mmHg 72%
    16:00 +7°C° 0 mm 6 mps 739 mmHg 72%
    17:00 +7°C° 0 mm 6 mps 740 mmHg 73%
    18:00 +7°C° 0 mm 5 mps 741 mmHg 73%
    19:00 +6°C° 0 mm 5 mps 741 mmHg 74%
    20:00 +6°C° 0 mm 5 mps 742 mmHg 75%
    21:00 +6°C° 0 mm 5 mps 742 mmHg 76%
    22:00 +6°C° 0 mm 5 mps 743 mmHg 77%
    23:00 +5°C° 0 mm 4 mps 743 mmHg 79%

    Tomorrow, 26 September, Wednesday

    Time Temperature Precipitation Wind Pressure Humidity
    00:00 +5°C° 0 mm 4 mps 744 mmHg 81%
    01:00 +4°C° 0 mm 4 mps 744 mmHg 83%
    02:00 +4°C° 0 mm 4 mps 745 mmHg 85%
    03:00 +3°C° 0 mm 4 mps 745 mmHg 86%
    04:00 +3°C° 0 mm 4 mps 746 mmHg 86%
    05:00 +3°C° 0 mm 4 mps 746 mmHg 87%
    06:00 +3°C° 0 mm 4 mps 747 mmHg 83%
    07:00 +3°C° 0 mm 5 mps 747 mmHg 79%
    08:00 +5°C° 0 mm 5 mps 748 mmHg 75%
    09:00 +6°C° 0 mm 5 mps 748 mmHg 70%
    10:00 +7°C° 0 mm 5 mps 749 mmHg 65%
    11:00 +8°C° 0 mm 5 mps 749 mmHg 60%
    12:00 +8°C° 0 mm 5 mps 749 mmHg 58%
    13:00 +9°C° 0 mm 5 mps 749 mmHg 56%
    14:00 +9°C° 0 mm 5 mps 749 mmHg 54%
    15:00 +8°C° 0 mm 4 mps 749 mmHg 57%
    16:00 +8°C° 0 mm 3 mps 749 mmHg 60%
    17:00 +8°C° 0 mm 3 mps 749 mmHg 63%
    18:00 +7°C° 0 mm 3 mps 749 mmHg 65%
    19:00 +5°C° 0 mm 3 mps 749 mmHg 66%
    20:00 +4°C° 0 mm 3 mps 749 mmHg 67%
    21:00 +4°C° 0 mm 4 mps 748 mmHg 69%
    22:00 +3°C° 0 mm 5 mps 748 mmHg 71%
    23:00 +3°C° 0 mm 5 mps 748 mmHg 72%

    Day after tomorrow, 27 September, Thursday

    Time Temperature Precipitation Wind Pressure Humidity
    00:00 +4°C° 0 mm 6 mps 747 mmHg 70%
    01:00 +4°C° 0 mm 7 mps 746 mmHg 67%
    02:00 +4°C° 0 mm 7 mps 746 mmHg 64%
    03:00 +4°C° 0.3 mm 8 mps 745 mmHg 67%
    04:00 +4°C° 0.3 mm 8 mps 744 mmHg 69%
    05:00 +3°C° 0.3 mm 9 mps 743 mmHg 71%
    06:00 +3°C° 0.6 mm 10 mps 742 mmHg 74%
    07:00 +3°C° 0.6 mm 10 mps 741 mmHg 77%
    08:00 +3°C° 0.6 mm 10 mps 741 mmHg 81%
    09:00 +5°C° 0.2 mm 10 mps 740 mmHg 82%
    10:00 +5°C° 0.2 mm 10 mps 740 mmHg 83%
    11:00 +6°C° 0.2 mm 9 mps 740 mmHg 84%
    12:00 +6°C° 0.3 mm 9 mps 740 mmHg 85%
    13:00 +6°C° 0.3 mm 9 mps 739 mmHg 86%
    14:00 +7°C° 0.3 mm 8 mps 739 mmHg 87%
    15:00 +7°C° 0.3 mm 8 mps 740 mmHg 88%
    16:00 +8°C° 0.3 mm 7 mps 740 mmHg 89%
    17:00 +9°C° 0.3 mm 7 mps 740 mmHg 89%
    18:00 +8°C° 0.1 mm 6 mps 740 mmHg 90%
    19:00 +8°C° 0.1 mm 5 mps 741 mmHg 90%
    20:00 +8°C° 0.1 mm 5 mps 742 mmHg 90%
    21:00 +7°C° 0 mm 4 mps 742 mmHg 91%
    22:00 +7°C° 0 mm 4 mps 742 mmHg 91%
    23:00 +6°C° 0 mm 4 mps 743 mmHg 92%

    28 September, Friday

    Time Temperature Precipitation Wind Pressure Humidity
    00:00 +6°C° 0 mm 4 mps 743 mmHg 92%
    01:00 +5°C° 0 mm 3 mps 743 mmHg 92%
    02:00 +5°C° 0 mm 3 mps 743 mmHg 92%
    03:00 +5°C° 0 mm 3 mps 743 mmHg 92%
    04:00 +4°C° 0 mm 3 mps 743 mmHg 92%
    05:00 +4°C° 0 mm 3 mps 743 mmHg 92%
    06:00 +5°C° 0 mm 4 mps 743 mmHg 87%
    07:00 +7°C° 0 mm 5 mps 742 mmHg 81%
    08:00 +8°C° 0 mm 6 mps 742 mmHg 76%
    09:00 +10°C° 0 mm 7 mps 742 mmHg 77%
    10:00 +11°C° 0 mm 7 mps 741 mmHg 78%
    11:00 +13°C° 0 mm 8 mps 741 mmHg 79%
    12:00 +13°C° 0 mm 8 mps 741 mmHg 79%
    13:00 +13°C° 0 mm 8 mps 740 mmHg 80%
    14:00 +13°C° 0 mm 8 mps 740 mmHg 80%
    15:00 +13°C° 0 mm 8 mps 739 mmHg 81%
    16:00 +14°C° 0 mm 7 mps 739 mmHg 81%
    17:00 +14°C° 0 mm 7 mps 738 mmHg 82%
    18:00 +14°C° 0.5 mm 7 mps 738 mmHg 83%
    19:00 +13°C° 0.5 mm 8 mps 738 mmHg 84%
    20:00 +13°C° 0.5 mm 8 mps 738 mmHg 84%
    21:00 +12°C° 0.4 mm 7 mps 738 mmHg 84%
    22:00 +11°C° 0.4 mm 6 mps 739 mmHg 85%
    23:00 +10°C° 0.4 mm 6 mps 739 mmHg 85%

    29 September, Saturday

    Time Temperature Precipitation Wind Pressure Humidity
    00:00 +9°C° 0 mm 5 mps 740 mmHg 87%
    01:00 +7°C° 0 mm 4 mps 740 mmHg 89%
    02:00 +6°C° 0 mm 4 mps 741 mmHg 91%
    03:00 +5°C° 0 mm 3 mps 742 mmHg 92%
    04:00 +4°C° 0 mm 3 mps 742 mmHg 93%
    05:00 +4°C° 0 mm 2 mps 743 mmHg 94%
    06:00 +4°C° 0 mm 3 mps 743 mmHg 89%
    07:00 +5°C° 0 mm 3 mps 744 mmHg 84%
    08:00 +5°C° 0 mm 3 mps 744 mmHg 79%
    09:00 +7°C° 0 mm 3 mps 745 mmHg 71%
    10:00 +8°C° 0 mm 3 mps 745 mmHg 63%
    11:00 +9°C° 0 mm 2 mps 745 mmHg 55%
    12:00 +10°C° 0 mm 2 mps 745 mmHg 52%
    13:00 +10°C° 0 mm 2 mps 745 mmHg 49%
    14:00 +10°C° 0 mm 2 mps 745 mmHg 46%
    15:00 +10°C° 0 mm 2 mps 745 mmHg 49%
    16:00 +9°C° 0 mm 2 mps 746 mmHg 52%
    17:00 +8°C° 0 mm 2 mps 746 mmHg 55%
    18:00 +7°C° 0 mm 2 mps 746 mmHg 56%
    19:00 +7°C° 0 mm 2 mps 747 mmHg 58%
    20:00 +6°C° 0 mm 2 mps 747 mmHg 59%
    21:00 +5°C° 0 mm 2 mps 747 mmHg 61%
    22:00 +5°C° 0 mm 2 mps 748 mmHg 62%
    23:00 +4°C° 0 mm 2 mps 748 mmHg 64%

    30 September, Sunday

    Time Temperature Precipitation Wind Pressure Humidity
    00:00 +4°C° 0 mm 2 mps 748 mmHg 65%
    01:00 +4°C° 0 mm 2 mps 749 mmHg 67%
    02:00 +4°C° 0 mm 2 mps 749 mmHg 68%
    03:00 +3°C° 0 mm 2 mps 750 mmHg 70%
    04:00 +3°C° 0 mm 2 mps 750 mmHg 73%
    05:00 +3°C° 0 mm 2 mps 750 mmHg 75%
    06:00 +4°C° 0 mm 2 mps 751 mmHg 73%
    07:00 +5°C° 0 mm 2 mps 751 mmHg 70%
    08:00 +6°C° 0 mm 2 mps 751 mmHg 68%
    09:00 +7°C° 0 mm 2 mps 751 mmHg 64%
    10:00 +8°C° 0 mm 2 mps 752 mmHg 60%
    11:00 +9°C° 0 mm 2 mps 752 mmHg 56%
    12:00 +9°C° 0 mm 2 mps 751 mmHg 55%
    13:00 +11°C° 0 mm 1 mps 751 mmHg 53%
    14:00 +11°C° 0 mm 1 mps 751 mmHg 52%
    15:00 +10°C° 0 mm 1 mps 751 mmHg 54%
    16:00 +10°C° 0 mm 1 mps 751 mmHg 57%
    17:00 +8°C° 0 mm 0 mps 751 mmHg 59%
    18:00 +8°C° 0 mm 1 mps 751 mmHg 61%
    19:00 +7°C° 0 mm 1 mps 751 mmHg 63%
    20:00 +7°C° 0 mm 1 mps 751 mmHg 65%
    21:00 +6°C° 0 mm 1 mps 751 mmHg 66%
    22:00 +6°C° 0 mm 1 mps 751 mmHg 68%
    23:00 +5°C° 0 mm 2 mps 751 mmHg 70%
    Show more